BEIDOU-3 M1

Last updated on May 15, 2019, 3:07 a.m. UTC

1 43001U 17069A   19134.10440238  .00000095  00000-0  00000+0 0  9994
2 43001  55.0995 149.6511 0012230 283.8365 276.4412  1.86231959 10341
UTC
Height (km)
Latitude
Longitude
Inclination
Orbital Period
UTC large
Height (km)
Speed (km/s)
/
Latitude / Longitude
Inclination (degrees)
Orbital Period (minutes)
Azimuth
Elevation
Range (km)
Doppler Factor
iOS Compass Heading
iOS Angle

Next 30 passes for location: Hong Kong

Rise time Rise Azimuth (degrees) Set time Set Azimuth (degrees) Duration Max altitude (degrees)

No matching passes for this satellites